Weather History for Visalia, CA

Change the Weather History Date:

Saturday, April 26, 2014

  Actual Average Record
Temperature  
Mean Temperature 55 °F -  
Max Temperature 64 °F 74 °F 93 °F (2004)
Min Temperature 46 °F 49 °F 39 °F (1984)
Degree Days  
Heating Degree Days 10    
Growing Degree Days 5 (Base 50)    
Moisture  
Dew Point 42 °F    
Average Humidity 64    
Maximum Humidity 82    
Minimum Humidity 45    
Precipitation  
Precipitation 0.00 in - - ()
Sea Level Pressure  
Sea Level Pressure 29.94 in    
Wind  
Wind Speed 5 mph (NW)    
Max Wind Speed 13 mph    
Max Gust Speed 17 mph    
Visibility 10 miles    
Events      
Averages and records for this station are not official NWS values.
T = Trace of Precipitation, MM = Missing Value Source: NWS Daily Summary

Daily Weather History Graph

Daily Weather History Graph

Search for Another Location

Airport:

Trip Planner

Search our weather history database for the weather conditions in past years. The results will help you decide how hot, cold, wet, or windy it might be!

Date:

Astronomy

Apr. 26, 2014 Rise Set
Actual Time 6:10 AM PDT 7:41 PM PDT
Civil Twilight 5:42 AM PDT 8:08 PM PDT
Nautical Twilight 5:10 AM PDT 8:41 PM PDT
Astronomical Twilight 4:35 AM PDT 9:15 PM PDT
Moon 4:32 AM PDT (4/26) 5:19 PM PDT (4/26)
Length of Visible Light 14h 25m
Length of Day
13h 31m
Waning Crescent, 7% of the Moon is Illuminated
Apr 26
Waning Crescent
Apr 28
New
May 6
First Quarter
May 14
Full
May 21
Last Quarter

Hourly Weather History & Observations

Time (PDT) Temp. Windchill Dew Point Humidity Pressure Visibility Wind Dir Wind Speed Gust Speed Precip Events Conditions
12:15 AM 48.2 °F - 41.0 °F 76% 29.85 in 10.0 mi East 4.6 mph - N/A   Overcast
12:35 AM 48.2 °F - 39.2 °F 71% 29.85 in 10.0 mi Calm Calm - N/A   Mostly Cloudy
12:55 AM 48.2 °F - 41.0 °F 76% 29.85 in 10.0 mi Calm Calm - N/A   Overcast
1:15 AM 48.2 °F - 41.0 °F 76% 29.85 in 10.0 mi SSW 3.5 mph - N/A   Overcast
1:35 AM 46.4 °F 44.3 °F 39.2 °F 76% 29.84 in 10.0 mi West 4.6 mph - N/A   Scattered Clouds
1:55 AM 46.4 °F - 39.2 °F 76% 29.84 in 10.0 mi Calm Calm - N/A   Mostly Cloudy
2:15 AM 46.4 °F 42.9 °F 41.0 °F 81% 29.83 in 10.0 mi West 6.9 mph - N/A   Overcast
2:35 AM 46.4 °F 42.9 °F 41.0 °F 81% 29.82 in 10.0 mi West 6.9 mph - N/A   Mostly Cloudy
2:55 AM 46.4 °F 42.9 °F 39.2 °F 76% 29.82 in 10.0 mi West 6.9 mph - N/A   Overcast
3:15 AM 46.4 °F 43.5 °F 41.0 °F 81% 29.82 in 10.0 mi WNW 5.8 mph - N/A   Overcast
3:35 AM 46.4 °F 43.5 °F 39.2 °F 76% 29.82 in 10.0 mi WNW 5.8 mph - N/A   Overcast
3:55 AM 46.4 °F 44.3 °F 41.0 °F 81% 29.83 in 10.0 mi NNW 4.6 mph - N/A   Overcast
4:15 AM 48.2 °F - 41.0 °F 76% 29.84 in 10.0 mi North 3.5 mph - N/A   Overcast
4:35 AM 48.2 °F - 42.8 °F 82% 29.85 in 10.0 mi NNE 3.5 mph - N/A   Overcast
4:55 AM 48.2 °F - 41.0 °F 76% 29.85 in 10.0 mi North 5.8 mph - N/A   Overcast
5:15 AM 48.2 °F - 41.0 °F 76% 29.85 in 10.0 mi NNW 5.8 mph - N/A   Overcast
5:35 AM 48.2 °F - 41.0 °F 76% 29.86 in 10.0 mi NW 5.8 mph - N/A   Overcast
5:55 AM 48.2 °F - 41.0 °F 76% 29.87 in 10.0 mi WNW 5.8 mph - N/A   Overcast
6:15 AM 48.2 °F - 41.0 °F 76% 29.87 in 10.0 mi WNW 3.5 mph - N/A   Overcast
6:35 AM 48.2 °F - 42.8 °F 82% 29.88 in 10.0 mi Calm Calm - N/A   Overcast
6:55 AM 48.2 °F - 41.0 °F 76% 29.89 in 10.0 mi Calm Calm - N/A   Overcast
7:15 AM 48.2 °F - 42.8 °F 82% 29.89 in 10.0 mi Calm Calm - N/A   Overcast
7:35 AM 50.0 °F - 42.8 °F 76% 29.89 in 10.0 mi NW 3.5 mph - N/A   Overcast
7:55 AM 50.0 °F - 42.8 °F 76% 29.90 in 10.0 mi NNW 3.5 mph - N/A   Overcast
8:15 AM 50.0 °F - 42.8 °F 76% 29.91 in 10.0 mi West 3.5 mph - N/A   Overcast
8:35 AM 50.0 °F - 42.8 °F 76% 29.92 in 10.0 mi WNW 5.8 mph - N/A   Overcast
8:55 AM 51.8 °F - 42.8 °F 71% 29.94 in 10.0 mi NW 6.9 mph - N/A   Overcast
9:15 AM 51.8 °F - 42.8 °F 71% 29.95 in 10.0 mi NW 6.9 mph - N/A   Overcast
9:35 AM 51.8 °F - 42.8 °F 71% 29.96 in 10.0 mi NW 10.4 mph - N/A   Overcast
9:55 AM 51.8 °F - 42.8 °F 71% 29.96 in 10.0 mi NNW 6.9 mph - N/A   Overcast
10:15 AM 51.8 °F - 42.8 °F 71% 29.96 in 10.0 mi North 5.8 mph - N/A   Overcast
10:35 AM 51.8 °F - 42.8 °F 71% 29.97 in 10.0 mi North 4.6 mph - N/A   Overcast
10:55 AM 53.6 °F - 42.8 °F 67% 29.98 in 10.0 mi NW 8.1 mph - N/A   Overcast
11:15 AM 53.6 °F - 42.8 °F 67% 29.99 in 10.0 mi North 6.9 mph - N/A   Overcast
11:35 AM 53.6 °F - 42.8 °F 67% 29.99 in 10.0 mi NNW 5.8 mph - N/A   Overcast
11:55 AM 55.4 °F - 42.8 °F 63% 29.99 in 10.0 mi NW 4.6 mph - N/A   Overcast
12:15 PM 55.4 °F - 42.8 °F 63% 29.99 in 10.0 mi NW 8.1 mph - N/A   Overcast
12:35 PM 55.4 °F - 42.8 °F 63% 29.99 in 10.0 mi North 6.9 mph - N/A   Overcast
12:55 PM 57.2 °F - 42.8 °F 59% 30.00 in 10.0 mi NW 9.2 mph - N/A   Overcast
1:15 PM 57.2 °F - 42.8 °F 59% 29.99 in 10.0 mi North 8.1 mph - N/A   Overcast
1:35 PM 59.0 °F - 42.8 °F 55% 29.99 in 10.0 mi NW 6.9 mph - N/A   Overcast
1:55 PM 59.0 °F - 44.6 °F 59% 29.99 in 10.0 mi NNW 6.9 mph - N/A   Mostly Cloudy
2:15 PM 60.8 °F - 44.6 °F 55% 29.99 in 10.0 mi NNW 8.1 mph - N/A   Partly Cloudy
2:35 PM 62.6 °F - 44.6 °F 52% 30.00 in 10.0 mi NW 6.9 mph - N/A   Partly Cloudy
2:55 PM 62.6 °F - 44.6 °F 52% 30.00 in 10.0 mi WNW 10.4 mph - N/A   Clear
3:15 PM 62.6 °F - 42.8 °F 48% 30.00 in 10.0 mi NW 11.5 mph - N/A   Partly Cloudy
3:35 PM 62.6 °F - 44.6 °F 52% 29.99 in 10.0 mi NW 12.7 mph - N/A   Scattered Clouds
3:55 PM 62.6 °F - 42.8 °F 48% 29.99 in 10.0 mi NNW 12.7 mph - N/A   Partly Cloudy
4:15 PM 62.6 °F - 44.6 °F 52% 29.99 in 10.0 mi North 8.1 mph - N/A   Clear
4:35 PM 64.4 °F - 44.6 °F 49% 29.99 in 10.0 mi NW 12.7 mph 16.1 mph N/A   Partly Cloudy
4:55 PM 64.4 °F - 42.8 °F 45% 29.98 in 10.0 mi NNW 12.7 mph 17.3 mph N/A   Clear
5:15 PM 64.4 °F - 42.8 °F 45% 29.98 in 10.0 mi North 11.5 mph - N/A   Clear
5:35 PM 64.4 °F - 42.8 °F 45% 29.98 in 10.0 mi NNW 8.1 mph - N/A   Clear
5:55 PM 64.4 °F - 42.8 °F 45% 29.98 in 10.0 mi NNW 9.2 mph - N/A   Clear
6:15 PM 62.6 °F - 42.8 °F 48% 29.98 in 10.0 mi North 5.8 mph - N/A   Clear
6:35 PM 64.4 °F - 42.8 °F 45% 29.97 in 10.0 mi NNW 5.8 mph - N/A   Clear
6:55 PM 62.6 °F - 42.8 °F 48% 29.97 in 10.0 mi NNW 5.8 mph - N/A   Clear
7:15 PM 62.6 °F - 42.8 °F 48% 29.97 in 10.0 mi NNW 8.1 mph - N/A   Clear
7:35 PM 62.6 °F - 42.8 °F 48% 29.97 in 10.0 mi North 5.8 mph - N/A   Clear
7:55 PM 60.8 °F - 42.8 °F 52% 29.97 in 10.0 mi NNW 6.9 mph - N/A   Clear
8:15 PM 60.8 °F - 41.0 °F 48% 29.98 in 10.0 mi North 6.9 mph - N/A   Clear
8:35 PM 60.8 °F - 41.0 °F 48% 29.98 in 10.0 mi North 8.1 mph - N/A   Clear
8:55 PM 59.0 °F - 39.2 °F 48% 29.98 in 10.0 mi NNW 8.1 mph - N/A   Clear
9:15 PM 57.2 °F - 39.2 °F 51% 29.99 in 10.0 mi NNW 6.9 mph - N/A   Clear
9:35 PM 57.2 °F - 39.2 °F 51% 30.00 in 10.0 mi NNW 6.9 mph - N/A   Clear
9:55 PM 55.4 °F - 39.2 °F 54% 30.02 in 10.0 mi NW 8.1 mph - N/A   Clear
10:15 PM 53.6 °F - 41.0 °F 62% 30.02 in 10.0 mi WNW 8.1 mph - N/A   Clear
10:35 PM 55.4 °F - 42.8 °F 63% 30.02 in 10.0 mi NW 11.5 mph - N/A   Clear
10:55 PM 53.6 °F - 41.0 °F 62% 30.04 in 10.0 mi WNW 9.2 mph - N/A   Clear
11:15 PM 53.6 °F - 41.0 °F 62% 30.04 in 10.0 mi NW 10.4 mph - N/A   Clear
11:35 PM 53.6 °F - 39.2 °F 58% 30.03 in 10.0 mi NNW 9.2 mph - N/A   Clear
11:55 PM 53.6 °F - 39.2 °F 58% 30.04 in 10.0 mi NW 9.2 mph - N/A   Clear